Wind_Speed
40 39 38 40 45 50 55 58 61 63 64 66 67 67 65 64 65 68 71 73 75 76 78 80 81 82 82 83 85 87 87 86 85 85 86 87 88 88 88 89 90 91 92 93 94 94 94 94 94 93 93 92 91 91 90 90 90 90 90 89 89 88 88 87 87 86 85 85 85 85 84 83 82 82 81 80 78 76 75 74 73 73 72 71 71
43 42 41 43 48 53 56 58 61 63 65 68 69 70 70 69 70 73 75 77 77 78 79 81 83 84 86 87 88 88 90 91 91 90 90 89 89 89 89 90 90 91 92 94 94 95 95 96 96 95 95 95 94 94 93 93 92 92 92 92 91 91 90 90 90 89 88 87 87 87 87 86 85 84 83 81 80 79 78 76 76 75 74 72 72
45 45 45 47 51 54 57 59 62 63 65 68 70 71 72 73 74 76 77 76 76 79 81 82 83 84 85 88 90 91 91 92 93 94 94 94 93 93 92 92 92 93 93 94 95 96 96 96 97 97 97 97 97 96 96 96 95 95 95 94 94 93 93 92 92 92 91 90 90 89 89 88 88 87 86 84 83 82 80 79 78 77 76 75 75
47 48 49 52 55 57 60 61 63 63 64 67 69 70 71 72 72 72 71 71 73 78 82 83 84 85 85 86 88 90 91 92 93 93 95 95 96 96 95 95 95 94 95 96 96 97 98 98 98 98 98 98 98 98 98 98 98 98 97 97 97 97 96 95 94 94 94 93 93 92 91 91 91 89 87 86 86 85 83 81 80 80 79 78 78
50 51 53 56 58 60 63 64 65 66 66 68 69 70 70 71 71 70 71 72 73 77 82 84 85 87 88 88 87 88 89 90 92 92 93 95 96 96 97 98 97 96 96 96 97 97 98 99 99 100 100 100 100 100 99 99 99 99 99 99 99 99 99 98 98 97 96 95 95 95 94 94 93 91 90 89 88 88 86 84 83 83 82 82 81
52 54 56 59 61 63 65 67 69 70 70 71 71 71 72 73 73 73 74 76 76 78 82 83 86 89 91 92 92 92 91 91 91 91 91 93 94 95 97 98 99 99 98 98 98 98 99 99 100 100 101 101 101 101 101 101 101 101 101 101 101 101 101 101 100 100 99 98 97 97 97 96 95 94 93 92 90 90 89 88 85 84 85 85 84
54 56 58 60 62 65 67 70 71 72 73 73 73 74 75 76 77 77 78 78 79 80 82 84 87 91 93 95 96 97 97 96 95 93 92 92 92 93 94 96 98 99 99 99 99 99 100 100 100 101 101 101 101 102 102 103 103 103 103 103 103 103 103 102 102 102 102 102 100 99 99 99 98 97 96 95 93 92 91 90 88 87 86 86 86
56 58 60 62 64 67 70 72 74 75 76 76 77 78 79 80 81 82 83 84 83 83 85 87 89 92 94 96 97 98 99 99 99 97 96 95 93 93 93 94 96 98 99 99 99 100 100 101 101 102 102 102 103 103 103 103 104 104 104 105 105 105 104 104 103 103 103 103 103 102 102 101 101 100 99 98 97 95 93 92 91 90 89 88 87
60 62 63 65 68 71 73 76 78 79 80 81 82 84 85 87 88 89 91 91 91 91 91 92 93 95 97 98 99 100 100 101 101 100 99 98 96 95 94 94 96 97 98 99 99 99 100 100 101 101 102 103 103 104 105 105 105 105 106 106 106 106 106 106 106 105 105 105 104 104 103 103 103 103 102 101 100 99 96 94 93 92 92 90 88
62 65 67 70 73 76 79 81 84 86 88 89 91 92 93 94 95 96 97 97 97 98 98 98 99 100 101 102 103 103 103 103 102 101 99 98 97 96 94 94 94 95 97 98 99 100 100 100 100 100 101 102 103 104 105 106 107 107 107 108 108 108 108 108 108 108 108 107 107 106 105 104 104 105 104 104 103 102 100 98 96 95 94 92 91
65 67 69 71 73 75 78 80 82 84 87 90 93 95 97 99 100 101 102 103 103 103 104 104 105 106 106 107 107 107 106 105 103 100 97 95 94 92 91 90 90 91 94 95 96 98 99 99 100 100 100 100 101 103 104 106 107 107 108 108 109 109 110 110 110 110 110 110 110 109 109 107 106 106 106 106 105 104 103 101 99 98 96 94 93
60 59 59 59 60 61 63 65 68 70 72 75 79 83 86 90 93 95 97 98 99 100 101 101 102 103 104 105 105 105 103 102 99 96 93 89 86 84 83 83 83 86 89 91 92 94 96 96 97 97 97 97 98 100 102 104 105 107 108 109 109 110 111 111 112 112 112 112 112 112 112 111 110 108 107 108 108 107 106 104 103 101 99 97 96
47 47 48 49 50 51 52 54 56 57 58 60 62 65 68 71 74 77 79 80 82 84 85 86 87 88 90 90 91 91 91 90 89 87 84 81 78 76 74 74 74 77 81 83 85 88 90 91 90 90 90 91 92 94 96 99 101 103 105 107 109 110 111 113 113 113 114 114 114 114 115 115 114 113 111 110 110 110 109 107 106 104 103 100 99
43 45 48 49 49 50 50 51 52 52 52 52 52 52 52 53 55 57 59 60 62 64 65 66 68 69 71 72 73 73 74 74 75 75 74 73 72 70 68 68 68 69 72 74 75 78 80 82 81 80 80 81 83 86 89 92 94 96 98 100 103 105 108 111 113 114 116 116 116 116 117 117 117 116 115 114 113 112 111 110 108 107 106 104 102
45 48 50 51 51 51 50 50 51 51 51 51 49 48 46 45 45 45 45 46 46 48 49 50 52 53 54 56 57 58 59 60 60 62 63 63 64 64 64 64 64 64 66 66 66 66 68 69 69 69 70 71 72 75 79 82 85 88 90 91 93 95 98 102 105 109 112 115 117 119 120 120 120 119 119 117 116 115 113 112 111 110 110 108 106
49 51 51 51 52 51 50 49 49 49 49 48 47 46 44 43 41 40 39 39 38 38 39 40 41 41 42 44 45 46 48 49 49 50 52 54 56 58 58 59 59 59 60 60 58 57 57 57 57 58 59 60 61 63 66 68 70 73 75 77 79 81 85 88 91 95 99 104 109 114 118 120 121 122 122 122 120 119 117 116 114 113 112 111 109
51 51 51 50 51 50 50 48 47 47 46 45 44 42 41 40 38 37 35 34 34 33 33 33 34 34 35 36 37 38 40 41 41 42 44 46 48 50 52 54 54 54 54 53 51 50 49 48 49 50 51 51 51 52 53 54 55 57 58 60 62 66 70 74 77 81 84 88 94 101 107 113 117 120 123 124 124 123 121 120 118 116 115 113 112
50 50 49 48 49 48 49 48 46 45 45 44 42 40 38 37 37 35 34 32 31 30 30 30 30 30 31 31 32 33 34 35 36 38 39 40 42 45 46 47 47 47 47 46 44 43 43 43 44 44 45 45 45 45 45 45 45 45 45 46 49 52 56 60 63 67 70 74 79 85 91 98 105 112 117 121 123 124 124 123 122 121 118 116 114
50 49 48 47 48 48 47 46 45 44 43 43 42 40 38 37 36 36 34 33 32 31 30 29 28 28 28 27 28 28 30 31 33 34 35 36 38 40 40 40 40 40 40 38 37 38 39 40 41 41 41 41 40 40 40 40 40 38 37 38 40 42 44 46 48 51 55 60 65 71 76 82 89 96 104 111 116 119 122 123 124 124 122 120 117
52 51 50 49 49 48 46 45 44 43 41 41 40 40 40 39 38 36 35 34 33 32 31 30 29 28 27 26 25 25 25 26 28 29 31 31 32 33 33 33 33 32 32 32 33 35 37 38 38 39 39 39 38 38 38 38 37 35 34 34 35 36 36 36 36 38 41 45 50 55 61 67 73 79 87 96 104 110 114 117 120 122 124 123 121
53 52 52 52 50 48 46 44 43 42 41 39 38 38 38 38 37 36 34 33 32 32 32 31 30 29 27 26 24 23 22 21 22 23 24 24 24 24 24 24 25 25 26 27 30 32 34 36 37 37 38 38 38 37 36 35 34 33 33 33 34 33 33 32 32 32 33 35 38 42 46 51 58 64 71 78 88 97 104 108 112 116 119 122 123
54 53 53 52 51 48 46 43 42 41 40 38 36 35 35 34 34 33 32 32 32 32 32 31 30 29 28 26 24 22 20 19 18 17 16 17 16 17 17 19 20 21 23 25 28 31 33 34 36 37 37 37 37 36 35 34 32 32 33 33 33 33 32 31 30 30 30 31 32 34 37 39 44 50 56 63 71 81 90 98 103 108 112 116 120
54 53 52 51 50 49 47 44 42 40 38 36 35 33 32 31 31 31 31 31 32 31 31 31 30 30 29 28 26 23 20 18 16 15 14 15 15 15 17 18 19 21 22 24 26 29 31 33 35 35 35 36 36 35 33 32 30 31 32 33 33 33 33 32 30 29 29 30 31 32 34 36 38 41 45 50 57 65 74 83 92 98 103 109 114
51 51 51 50 50 48 46 43 41 39 37 34 32 31 30 30 31 32 32 32 32 32 32 32 31 30 30 29 27 25 22 19 17 16 16 17 17 18 19 20 22 23 24 25 27 29 30 32 32 33 34 34 34 34 32 30 30 30 31 31 32 32 32 31 30 29 29 31 33 33 34 36 37 38 40 42 47 53 60 68 77 85 92 100 106
49 49 50 50 49 47 45 43 41 38 36 33 32 31 31 32 32 33 34 34 33 33 32 31 31 30 30 29 28 27 24 22 19 17 17 18 19 20 21 22 23 25 26 28 29 31 32 32 32 33 34 34 35 33 30 29 30 30 30 29 30 30 30 30 29 29 30 32 33 33 34 36 37 38 38 39 41 45 50 56 63 71 79 88 96
48 49 49 49 48 47 45 43 41 39 36 34 33 33 34 34 34 34 34 33 32 31 31 31 31 31 31 30 29 27 24 22 20 18 17 18 18 20 21 22 23 24 26 28 29 31 32 32 33 34 34 33 32 29 27 28 30 29 28 28 28 28 29 29 29 29 30 32 33 33 34 36 37 38 38 38 39 41 43 47 52 59 66 74 84
48 49 50 49 48 48 46 43 41 39 37 36 35 35 35 34 34 34 33 32 31 30 30 30 30 30 30 30 29 27 25 22 20 18 16 16 16 17 18 20 21 23 24 26 28 30 31 32 34 34 33 31 28 25 26 28 29 28 27 27 27 28 29 30 30 30 31 32 33 33 35 37 38 38 38 38 38 39 40 42 46 51 57 64 72
48 49 50 50 50 49 47 44 42 40 39 38 37 36 35 34 33 33 33 32 31 30 30 29 29 29 30 30 29 28 26 24 21 18 14 12 12 13 14 15 17 18 20 22 24 26 27 30 33 34 32 29 24 22 25 28 28 27 27 26 26 28 29 29 30 31 32 33 33 34 36 37 38 38 38 38 38 38 39 40 42 46 51 56 63
46 48 50 52 52 50 47 45 43 41 39 37 35 34 34 33 33 33 32 32 31 30 29 28 27 27 28 28 28 27 26 24 22 19 14 9 6 6 8 10 11 13 14 16 18 20 23 25 28 29 28 25 22 23 27 28 26 26 26 26 26 27 28 28 30 31 32 32 32 34 35 37 38 38 38 38 38 39 40 40 42 44 47 51 56
43 46 50 52 53 52 49 46 43 40 38 36 35 33 33 33 33 33 33 32 30 29 29 28 27 27 27 27 27 26 25 25 24 22 19 14 9 5 0 4 6 8 10 11 13 16 18 19 21 22 22 22 22 25 26 25 25 26 26 26 26 27 27 27 29 30 30 30 31 33 34 36 37 37 38 39 40 41 41 41 42 44 45 48 51
42 45 49 51 53 52 50 47 43 40 38 36 35 34 34 34 34 34 33 31 30 29 28 28 28 27 27 26 26 25 24 24 24 23 22 19 16 12 8 5 4 4 5 7 9 11 13 15 17 18 19 21 22 24 24 24 25 26 26 26 26 26 26 26 27 27 27 27 28 30 32 35 36 38 39 40 41 40 40 40 41 42 43 45 47
42 45 48 51 52 52 50 48 45 42 39 36 35 34 34 33 33 33 32 31 29 28 28 29 29 28 27 26 25 24 23 22 22 22 22 21 19 16 13 10 7 5 3 4 6 8 10 12 13 15 17 19 21 21 22 24 25 25 25 25 26 26 25 25 25 25 25 25 26 28 30 32 35 36 37 38 38 38 38 38 39 40 40 41 42
43 44 47 50 52 51 50 49 47 45 41 38 35 33 32 32 32 32 31 30 29 28 29 29 29 29 28 27 26 24 23 21 21 20 19 19 18 16 14 12 10 7 5 4 4 5 6 9 11 13 15 17 18 20 21 23 23 24 24 24 25 25 24 24 24 24 25 25 26 27 29 30 32 33 33 33 33 34 35 35 36 38 38 38 37
44 44 46 49 51 51 50 49 48 46 43 39 36 34 33 33 33 32 31 30 29 29 29 29 29 28 28 27 26 25 24 22 21 20 19 17 16 15 13 12 10 8 6 4 3 4 5 7 9 11 13 15 17 19 20 21 22 23 23 23 23 23 23 23 23 23 24 25 26 28 28 30 30 30 30 30 31 32 33 34 35 36 36 36 35
44 44 45 47 49 49 48 47 47 45 43 40 38 36 36 35 35 34 34 33 33 32 32 31 30 29 28 28 27 26 25 24 22 21 20 18 16 15 12 10 8 6 4 2 1 2 4 6 9 11 13 15 17 18 20 21 22 22 22 22 23 23 23 23 23 23 23 24 26 27 28 29 30 30 29 29 30 32 33 33 34 35 35 35 34
45 45 44 46 47 47 46 46 45 45 43 40 38 37 37 36 36 36 36 36 35 35 34 33 31 30 30 29 28 27 27 26 25 23 22 21 19 17 15 13 10 8 5 4 3 4 6 7 9 11 13 15 16 17 18 20 21 21 22 22 22 22 23 23 23 23 24 24 25 27 28 29 30 30 30 30 31 32 33 33 34 34 34 34 34
46 46 45 45 45 45 44 44 44 43 43 41 39 37 37 37 36 36 36 36 35 34 33 32 31 30 29 29 28 28 27 27 26 25 25 24 22 21 19 17 15 13 11 9 8 7 7 8 9 10 12 13 15 16 17 18 18 19 20 21 21 22 22 23 23 24 24 25 26 27 28 29 29 30 30 31 32 32 32 32 33 33 33 33 33
46 45 44 44 44 44 42 41 41 41 41 41 39 37 36 35 35 35 34 34 34 33 33 32 31 30 29 29 28 28 28 27 26 26 25 24 23 22 20 19 18 16 14 13 11 10 9 8 8 8 9 11 12 14 15 16 17 18 19 20 21 21 22 22 23 24 25 25 26 27 28 28 29 29 30 31 33 33 32 32 33 33 32 31 31
46 45 44 43 42 42 41 39 38 38 38 39 38 37 35 33 33 32 32 32 32 32 32 31 30 30 29 29 29 29 29 28 26 26 25 24 24 23 21 20 19 17 15 14 13 12 11 10 9 8 8 7 7 8 9 11 13 14 16 17 19 20 21 21 22 23 24 25 26 27 28 29 29 29 30 31 32 33 33 32 32 32 31 30 30
47 46 45 43 41 40 39 37 35 35 35 35 35 35 34 32 31 29 29 29 30 31 30 29 29 29 29 29 29 29 28 27 26 25 24 24 24 24 22 21 21 19 17 15 13 12 11 10 9 9 8 8 7 7 6 6 6 6 7 8 10 11 13 15 16 18 20 22 23 25 27 28 29 29 30 30 31 32 33 33 33 32 30 30 30
49 46 44 43 42 40 38 36 34 32 32 32 32 32 32 32 30 28 26 26 28 29 29 29 29 29 29 30 29 29 28 27 26 24 24 24 25 24 24 24 23 23 21 19 16 13 12 11 9 8 8 8 8 7 6 5 5 4 4 4 4 4 4 5 7 9 11 13 15 18 21 25 27 29 30 30 31 31 32 33 33 32 31 32 33
50 47 44 43 42 40 38 36 34 32 30 30 30 31 31 31 30 28 26 24 25 26 28 28 28 28 29 30 30 29 28 27 26 25 24 24 25 25 24 24 24 24 23 21 19 16 15 13 12 10 9 8 7 7 7 6 6 6 6 6 5 4 4 4 5 6 7 8 9 11 13 17 21 25 28 30 30 31 32 33 33 32 32 34 34
52 49 45 43 42 40 38 36 33 31 30 29 29 29 29 29 29 28 27 25 23 24 25 26 27 27 28 28 28 28 28 27 26 25 25 25 25 24 24 23 23 23 23 21 19 18 17 15 14 12 10 9 8 7 7 7 7 7 8 8 6 5 5 6 8 9 9 10 10 11 11 12 14 18 23 26 29 31 32 32 31 32 32 34 34
56 51 47 44 42 41 39 37 34 32 30 29 28 27 27 27 27 27 27 25 24 23 24 25 26 26 27 27 26 26 26 26 25 25 24 24 24 24 24 23 22 21 21 20 18 18 17 17 16 15 14 12 11 10 9 9 8 8 8 8 7 7 8 9 10 10 11 12 13 14 14 14 14 15 17 21 24 27 29 29 30 30 31 32 34
61 55 50 46 43 41 40 38 36 33 31 29 27 26 25 25 24 24 25 25 24 24 24 25 26 26 26 26 25 24 24 23 23 23 23 22 22 23 23 22 21 21 20 19 18 18 18 18 17 17 17 16 14 13 12 11 10 10 9 8 9 11 11 11 11 11 13 14 15 15 15 16 16 17 18 19 20 22 24 25 26 28 28 30 32
66 60 53 48 45 43 41 39 38 36 33 30 27 26 24 23 22 21 22 22 22 22 23 24 25 26 26 26 25 24 23 23 23 22 22 21 20 21 21 22 22 22 21 21 20 19 19 18 17 17 17 16 15 14 13 12 11 10 10 10 11 12 11 10 10 12 13 14 14 14 13 13 14 16 18 19 20 21 21 22 22 23 25 26 27
71 65 59 52 47 43 42 40 39 37 35 32 29 27 25 23 22 20 19 19 20 20 21 21 22 23 24 25 24 24 24 23 23 24 23 22 21 20 20 21 21 21 21 21 21 20 20 19 18 16 15 15 15 13 13 12 12 12 12 11 11 11 10 9 10 11 12 13 13 12 10 10 11 13 15 18 20 21 22 21 21 20 21 21 22
75 70 65 59 51 45 42 40 39 37 35 34 32 29 27 25 23 22 20 19 18 18 18 19 19 19 20 21 22 22 22 22 22 23 23 23 23 22 21 20 19 19 19 19 19 19 19 19 18 17 15 15 14 13 13 13 14 14 14 14 13 12 10 10 11 11 11 11 11 10 8 8 9 10 12 14 17 19 21 22 21 20 20 19 20
77 74 70 65 58 50 44 41 39 38 36 35 33 31 29 27 25 24 23 21 20 19 18 17 17 17 17 18 18 19 20 21 20 20 20 21 21 21 21 21 20 19 19 19 18 18 18 18 17 17 16 15 14 13 13 14 14 14 15 14 13 12 11 9 10 11 11 11 11 10 9 8 7 8 8 9 11 14 17 20 21 20 20 20 21
77 76 73 69 63 57 50 44 40 38 37 36 35 33 31 30 27 26 24 24 23 22 21 20 18 18 17 17 17 17 18 19 20 20 19 18 17 17 17 18 19 20 21 21 20 19 18 17 17 16 16 15 14 13 13 13 13 14 15 14 13 11 11 10 10 10 11 11 12 12 10 9 8 7 7 6 6 8 10 13 15 16 16 17 18
77 76 74 71 67 62 57 50 44 39 37 36 35 34 33 32 30 28 26 25 25 25 24 23 22 21 20 19 18 18 18 18 19 20 20 20 19 18 16 15 16 18 20 21 21 20 19 17 16 16 16 15 14 13 13 12 13 14 15 14 12 11 11 11 10 10 10 11 11 12 11 11 10 10 9 9 8 7 8 9 10 12 13 14 15
Wind_Direction
295 289 284 282 280 278 277 277 275 274 273 272 272 272 272 271 271 271 270 268 266 263 260 258 256 254 251 249 247 245 245 245 246 246 247 247 247 247 248 250 251 251 251 251 250 250 249 249 248 247 247 246 246 245 246 246 246 246 246 246 246 247 247 248 248 248 248 248 248 248 247 246 246 247 248 248 247 246 246 247 247 246 245 244 243
296 292 289 287 283 281 279 277 275 273 272 272 271 272 272 271 270 270 269 269 269 267 264 261 259 257 255 253 251 249 248 247 246 246 247 247 247 247 247 248 249 250 251 251 251 251 251 250 249 249 248 247 246 246 246 246 246 246 246 246 246 246 246 247 247 248 248 248 248 248 248 247 246 246 247 247 248 248 247 247 247 247 246 245 244
299 296 294 290 286 284 283 281 279 277 275 274 272 271 271 270 269 269 269 269 270 271 269 266 264 260 257 256 254 253 252 250 249 248 248 248 249 249 249 249 249 250 250 250 251 251 251 251 250 250 250 249 248 247 247 246 246 246 246 246 246 246 246 246 246 247 247 248 248 248 248 248 247 247 246 246 247 247 247 246 246 246 246 245 245
301 299 297 292 288 286 285 285 284 283 282 280 278 276 274 272 271 269 269 270 271 270 270 269 268 266 262 259 257 255 254 253 253 252 252 251 251 251 251 251 251 251 251 250 250 250 251 250 250 250 250 250 249 249 248 248 247 247 246 246 246 246 246 245 246 246 246 247 247 248 248 248 248 247 247 247 247 246 246 246 246 246 246 245 246
301 299 297 294 288 286 285 285 285 285 284 284 283 282 280 277 274 270 268 268 268 267 268 270 271 269 266 263 261 258 256 255 254 254 254 254 254 253 253 253 253 253 252 251 250 250 250 250 250 250 250 250 250 250 249 249 249 248 247 247 247 246 246 246 245 245 245 246 246 246 247 247 248 248 247 247 247 247 247 246 246 246 246 245 245
299 297 296 294 290 287 286 286 286 285 285 284 284 282 281 280 278 275 271 269 267 266 268 270 271 269 267 265 263 261 259 258 257 256 255 256 256 255 255 254 254 253 253 252 251 251 250 250 250 250 250 250 250 250 250 250 249 249 249 248 247 247 247 246 246 246 245 245 245 245 246 246 246 247 247 247 246 247 247 247 246 246 247 246 246
297 295 293 293 290 288 287 287 287 286 286 285 283 282 280 279 277 276 274 272 270 268 269 269 269 269 268 267 266 264 263 261 260 258 258 257 257 257 257 256 255 254 253 252 252 251 250 250 250 249 249 249 249 249 249 249 249 249 249 249 249 248 247 247 246 247 246 246 245 245 245 245 246 246 246 246 246 246 247 247 247 247 247 247 246
295 293 291 291 290 288 288 287 286 286 285 284 283 281 279 277 276 274 273 272 271 270 269 269 269 269 270 269 269 268 267 265 263 262 261 260 259 259 259 259 258 256 254 253 252 251 251 250 249 249 249 249 249 249 249 249 248 248 248 248 248 248 248 247 247 246 246 246 246 245 245 245 245 245 245 245 245 245 245 246 247 247 247 247 247
292 290 289 288 287 286 285 284 284 283 283 281 280 279 277 276 275 274 273 273 272 271 271 270 270 270 271 271 271 271 271 270 268 266 265 263 262 261 261 261 261 259 258 256 254 253 252 251 250 249 249 248 248 248 248 248 248 248 247 247 247 248 248 247 247 246 246 246 246 246 245 245 245 245 244 244 244 244 244 245 245 246 246 247 247
290 288 287 286 285 284 283 282 282 281 280 279 278 277 277 276 275 275 274 274 274 273 273 272 271 271 271 271 271 271 271 271 270 268 267 266 264 263 263 263 262 261 260 258 257 256 255 253 252 251 250 249 248 248 248 248 247 247 247 247 247 247 246 247 246 246 246 246 245 245 245 245 245 245 245 244 244 244 243 243 243 244 245 245 246
291 289 288 288 287 287 286 286 285 283 281 280 278 277 276 276 275 275 274 274 274 274 273 273 272 272 271 271 271 271 271 271 270 269 268 268 266 264 263 263 262 262 260 259 258 258 257 256 255 254 253 252 251 250 249 249 248 247 247 247 247 246 246 246 245 245 245 245 245 245 245 245 244 245 245 245 244 243 243 242 241 241 242 243 244
299 299 299 299 300 300 299 298 296 294 291 288 285 283 281 279 278 278 277 277 276 276 275 274 274 273 273 272 272 272 271 271 270 269 268 267 266 264 262 261 260 260 260 259 259 258 258 257 257 256 256 255 254 253 252 251 250 249 249 248 247 247 246 246 245 245 244 244 244 244 244 244 244 244 244 245 244 243 242 241 241 240 240 240 241
314 314 314 315 315 315 314 313 310 307 304 300 296 293 290 288 286 285 284 283 282 281 280 279 278 277 276 275 274 273 272 271 270 269 267 266 265 263 262 260 258 258 257 257 257 257 257 257 257 256 256 256 255 255 254 253 252 252 251 250 250 249 249 248 247 246 245 244 243 243 243 243 244 244 243 243 244 244 243 241 240 240 239 238 239
323 322 321 320 319 320 321 322 322 320 317 313 310 306 303 299 295 293 291 289 287 285 284 282 281 280 279 278 276 275 274 272 270 269 266 265 264 262 261 259 258 256 256 254 253 254 254 254 254 254 254 254 253 254 254 254 254 253 253 252 251 251 250 250 249 248 248 246 245 244 243 243 242 243 243 243 243 243 243 242 241 240 239 238 237
328 327 325 323 322 321 322 324 326 327 327 326 324 320 316 312 308 305 302 299 296 293 290 288 286 284 282 281 279 278 276 273 271 269 266 264 262 261 260 258 256 255 255 254 252 251 251 251 251 250 250 250 250 251 251 252 252 253 252 252 252 251 250 249 249 248 248 247 247 246 245 244 242 242 242 242 242 242 243 243 242 240 239 238 236
333 332 329 326 325 324 322 322 325 328 331 333 333 331 328 325 322 319 316 313 309 305 302 298 295 292 289 286 284 281 279 276 273 269 266 263 261 259 258 257 256 254 254 253 251 249 248 246 245 244 244 244 245 247 248 250 251 251 252 252 251 251 250 249 248 247 246 245 245 244 244 243 243 242 241 241 241 241 241 242 242 241 239 238 237
336 334 332 330 330 328 325 323 324 327 331 335 338 339 339 337 336 334 331 327 323 318 314 310 305 301 297 294 290 286 282 279 275 270 266 262 260 258 256 255 255 253 253 251 249 246 243 240 238 237 238 239 240 243 246 248 249 250 251 252 252 251 251 250 249 248 246 245 243 242 242 241 241 240 240 240 239 240 240 240 240 241 240 239 237
337 336 335 334 333 332 331 329 326 326 329 334 337 340 343 343 343 343 342 340 337 333 329 324 319 313 308 302 297 292 287 282 277 272 267 263 260 258 256 254 253 251 250 247 242 239 236 232 230 231 234 236 238 241 244 247 249 250 251 252 253 253 252 251 251 250 248 247 245 243 242 241 239 238 238 237 237 237 237 238 238 239 239 239 238
340 339 339 338 336 335 336 335 333 329 328 330 334 337 340 342 342 342 342 342 342 341 339 337 334 330 324 317 310 302 294 287 281 275 270 266 261 259 257 254 251 247 244 240 234 231 228 226 226 230 234 237 238 240 243 246 249 250 250 252 254 254 253 252 252 252 250 249 247 246 244 243 241 239 237 236 236 235 234 235 236 236 237 238 238
343 342 342 342 339 337 337 338 339 337 332 329 330 332 335 337 338 339 339 340 340 341 341 341 339 337 335 331 326 318 306 296 287 281 275 269 264 260 256 251 246 242 238 233 227 223 223 224 228 232 236 239 241 242 244 247 249 249 248 250 252 253 253 253 253 252 252 251 249 247 246 244 243 241 239 237 237 236 234 233 232 233 234 235 236
346 346 345 344 343 341 339 339 341 343 341 337 333 331 332 334 336 338 340 342 343 342 342 342 340 338 336 334 332 327 321 311 300 290 281 274 266 259 252 246 242 238 234 228 223 220 222 226 230 233 237 240 242 243 245 248 249 248 246 247 249 251 251 251 251 252 252 252 251 249 247 245 243 242 240 239 238 237 236 235 233 231 231 232 233
348 349 348 347 347 346 344 342 343 345 346 345 343 340 338 338 340 342 343 345 345 345 344 342 341 339 338 336 333 328 323 317 310 301 289 278 268 257 249 245 244 241 235 227 223 221 223 227 231 234 238 241 243 245 246 248 249 249 247 246 247 248 249 247 247 249 252 253 252 250 249 247 244 242 240 239 238 237 237 236 235 233 231 230 230
350 351 351 351 352 352 351 348 346 346 347 348 348 347 346 346 346 346 346 345 345 345 344 344 343 342 341 339 336 330 323 314 306 298 288 278 269 260 254 251 249 247 242 235 231 228 228 230 233 236 239 242 245 246 248 250 252 251 249 247 246 246 247 246 244 246 251 255 253 250 249 247 245 243 240 239 238 238 237 237 236 234 233 231 230
354 353 354 355 356 356 355 353 352 351 351 352 353 352 352 351 349 347 346 345 344 344 344 345 345 344 342 341 337 333 326 316 303 290 279 271 264 259 254 249 246 246 246 243 241 239 237 237 238 240 242 244 247 248 250 252 253 251 250 248 247 247 247 247 245 246 250 255 254 249 246 245 244 243 241 239 239 238 238 237 236 235 234 232 231
356 356 357 358 358 358 357 357 356 356 357 358 357 356 354 352 349 347 346 345 344 344 345 345 346 346 346 344 341 337 331 322 310 295 279 267 259 254 250 246 241 238 238 238 239 240 241 243 243 245 246 246 247 249 249 249 250 250 250 250 250 250 250 249 248 248 251 253 253 249 244 242 242 241 240 239 240 240 239 238 236 236 235 233 232
359 360 360 359 359 358 357 357 357 358 358 358 357 355 353 351 351 350 349 348 348 347 348 349 349 350 350 348 347 344 339 332 322 308 292 275 262 252 247 242 237 232 230 230 231 232 235 240 243 246 248 249 250 249 246 245 247 249 249 250 251 252 253 252 251 251 253 253 251 247 242 240 239 239 238 238 239 240 240 238 236 236 235 234 232
1 2 2 1 0 359 358 356 355 355 355 354 354 354 354 355 356 357 355 354 353 354 354 354 353 353 353 353 353 352 350 346 338 325 309 290 274 260 250 244 239 234 231 230 231 231 232 236 242 248 251 253 253 250 245 245 248 250 251 251 252 253 253 253 253 253 253 252 249 244 240 238 237 236 236 236 236 237 238 237 236 236 235 234 232
3 3 3 3 2 360 358 356 354 353 353 354 355 356 358 0 1 1 1 0 360 0 360 359 358 358 359 359 359 358 358 356 352 344 330 309 288 270 256 247 243 241 238 237 236 236 236 237 241 247 250 252 250 243 240 244 248 251 254 256 257 256 257 257 255 254 253 251 248 243 239 237 236 234 233 233 233 234 235 235 235 235 235 234 233
3 3 3 3 2 1 359 357 356 355 355 356 358 359 0 2 3 3 4 4 5 4 4 5 5 5 5 5 4 6 7 7 7 6 2 350 323 287 259 244 239 239 239 239 237 237 238 239 242 245 247 246 239 233 237 243 248 253 257 260 260 260 260 259 256 255 254 252 248 242 238 235 234 233 232 232 232 232 233 233 233 234 235 234 233
2 3 4 3 3 2 1 0 359 358 358 359 360 0 1 2 3 3 4 6 7 8 9 10 11 12 12 12 12 13 16 20 23 26 28 31 32 31 27 217 221 226 232 235 235 235 237 240 242 242 239 233 228 231 238 244 249 253 257 259 260 260 258 256 255 255 254 252 247 241 237 235 234 233 232 231 232 233 234 234 234 234 235 235 235
1 2 3 4 3 3 3 3 1 360 358 357 357 359 0 2 3 3 4 6 8 11 14 15 15 17 19 20 20 21 24 28 33 38 42 45 49 56 69 97 147 191 215 225 229 231 234 236 235 232 229 226 227 232 240 245 250 254 257 257 257 257 256 253 251 251 250 246 242 239 236 234 234 233 233 233 234 235 235 235 236 236 237 237 237
1 2 3 4 4 4 4 5 4 3 1 359 357 357 358 1 3 4 5 6 9 13 17 19 20 21 23 25 27 28 30 32 36 41 46 50 54 59 65 75 91 114 152 192 213 222 226 228 228 227 226 227 230 236 242 247 251 254 255 255 255 255 253 250 247 245 243 239 236 235 235 235 236 237 237 237 237 237 237 236 236 238 238 239 239
0 1 3 4 5 5 6 7 7 6 6 5 5 4 3 5 7 8 9 11 12 15 20 22 23 23 24 26 29 31 33 35 38 41 45 50 55 59 65 71 78 90 108 138 175 198 212 219 223 226 229 232 236 242 246 250 253 254 255 254 254 254 252 249 245 241 238 236 233 233 234 235 237 239 241 241 240 239 238 236 236 237 239 240 241
1 1 2 5 6 7 8 9 9 9 11 13 14 14 13 14 16 17 19 20 21 23 25 26 25 25 26 28 29 31 32 35 38 41 43 46 50 54 59 65 71 80 91 109 140 174 202 217 225 232 236 240 244 247 249 251 253 254 255 254 253 253 250 247 244 241 238 236 234 234 234 235 236 238 239 240 241 240 238 237 237 238 240 241 241
2 2 3 5 7 8 9 10 12 13 16 19 21 20 21 24 27 29 31 32 33 33 33 33 33 32 33 33 34 34 35 35 37 39 40 40 41 43 45 48 53 59 67 83 154 210 225 234 240 245 247 249 250 250 251 252 253 254 254 253 252 250 247 245 243 240 238 237 236 235 235 236 236 236 236 237 238 238 239 238 238 239 240 241 240
3 3 4 5 7 9 10 12 14 16 18 21 23 24 27 31 34 36 37 37 36 36 35 35 35 36 36 37 37 38 38 38 38 39 40 39 38 37 35 32 29 23 13 352 315 285 270 263 260 259 259 258 257 256 256 256 257 257 257 255 253 250 247 245 243 241 239 237 236 235 235 236 237 236 235 234 235 237 238 238 238 239 240 240 240
4 4 4 4 6 9 11 12 15 18 21 23 24 27 30 33 33 33 34 34 34 33 33 33 33 34 35 36 36 37 37 38 38 39 40 40 39 39 37 34 31 25 17 7 351 334 316 300 287 279 274 270 267 266 264 262 261 260 259 258 256 254 252 251 250 247 244 241 239 237 236 237 237 236 235 234 235 236 236 237 238 239 239 239 239
5 5 4 4 5 8 10 12 15 18 22 24 26 28 30 31 30 30 30 31 31 31 30 31 31 32 32 33 33 34 34 35 35 37 38 39 40 40 39 38 36 32 28 22 15 7 357 344 327 311 299 289 281 275 272 269 266 264 262 261 260 258 257 256 256 256 254 251 247 243 239 238 238 238 237 236 236 236 235 235 236 238 238 238 238
4 4 5 5 4 6 9 12 14 16 19 22 24 26 27 28 27 27 28 28 27 27 27 27 27 28 28 28 29 30 31 31 32 34 36 37 38 37 37 37 36 32 29 26 24 22 19 15 9 359 348 336 322 307 295 287 281 276 273 270 268 266 265 263 262 262 261 259 255 251 246 242 240 240 239 238 239 238 235 234 235 236 236 235 236
4 4 5 5 4 5 6 9 12 14 16 18 20 22 23 23 24 24 25 24 24 23 24 24 24 25 25 26 26 27 27 28 29 31 33 34 35 34 33 34 32 28 25 23 23 23 22 20 20 18 16 13 10 4 353 339 326 311 298 288 280 275 271 269 267 265 264 263 260 256 252 247 243 241 240 239 239 239 237 235 234 234 234 233 233
6 5 5 5 4 4 4 5 9 12 14 15 16 17 18 19 19 20 21 21 20 20 21 22 22 22 21 22 23 24 25 25 25 26 28 30 31 31 31 32 30 27 23 19 18 19 17 13 9 7 8 7 6 5 3 359 354 351 343 330 317 305 296 288 282 277 272 268 265 260 256 250 245 241 240 239 239 239 237 235 234 233 232 231 231
5 6 5 4 4 4 3 2 3 6 9 12 13 15 16 16 16 16 16 16 15 14 14 16 17 16 16 16 17 18 20 21 22 22 24 26 27 29 31 31 30 28 24 22 22 23 21 16 8 0 357 357 352 347 344 339 336 334 330 324 315 309 310 314 316 312 306 296 286 275 265 257 249 243 240 238 237 237 236 235 234 232 231 231 230
5 5 6 5 4 4 4 2 0 0 3 5 8 12 14 14 14 14 13 13 11 8 7 8 8 8 9 10 10 11 13 15 17 18 20 21 23 26 30 32 31 28 24 22 23 24 23 20 14 6 1 359 355 347 341 337 331 328 327 322 312 300 298 303 306 308 307 303 297 290 281 270 259 250 244 240 238 238 237 236 234 232 231 232 231
7 5 5 5 4 3 3 3 1 358 357 359 2 6 9 11 11 11 11 11 10 8 5 5 4 4 5 6 6 6 7 9 12 14 15 17 19 22 26 28 30 29 25 21 20 20 20 19 17 14 11 8 6 360 353 348 341 334 328 320 307 296 296 299 301 303 303 300 296 291 284 275 265 256 248 244 241 241 240 238 236 234 233 233 234
9 7 5 3 3 3 3 2 1 359 356 354 356 359 2 5 8 9 9 9 10 10 10 8 7 7 7 8 8 7 6 7 9 12 15 15 16 17 19 21 23 24 22 19 16 15 14 14 15 16 16 14 12 7 1 354 347 338 328 316 306 302 302 301 298 299 301 301 300 297 287 275 266 257 250 245 242 241 241 240 238 237 237 237 237
12 10 7 4 2 2 2 1 1 360 357 353 351 352 355 357 360 3 4 5 7 9 11 11 11 10 9 10 10 11 10 9 9 12 16 17 16 15 14 14 14 15 14 12 10 8 8 8 8 12 14 13 12 10 6 358 350 341 331 322 315 312 311 304 296 298 302 305 307 306 295 281 270 261 253 246 242 239 238 238 238 238 239 241 242
13 12 10 7 3 1 360 360 359 359 358 355 350 347 347 348 350 353 355 357 359 2 5 8 10 11 11 9 9 11 12 12 10 10 12 14 15 15 13 11 8 6 6 6 4 3 4 5 4 6 10 10 9 8 5 359 353 347 342 337 329 322 316 305 297 300 306 307 310 313 306 291 280 271 262 252 244 240 237 236 236 237 238 240 242
14 13 12 10 7 2 358 357 357 357 357 356 354 350 345 342 342 343 344 346 348 351 354 358 2 5 8 8 7 8 9 11 10 9 7 7 7 8 8 8 5 2 360 359 359 359 359 0 1 1 4 6 5 1 359 356 353 349 346 345 342 336 326 310 300 301 306 307 307 311 312 303 292 283 272 259 248 242 237 234 234 234 235 238 240
14 14 13 12 10 6 0 356 355 355 355 354 354 353 349 344 339 336 335 335 336 338 341 344 348 352 356 358 0 2 2 3 4 4 3 2 1 360 358 358 357 357 355 354 353 352 352 352 354 356 358 360 358 356 355 354 350 349 349 350 347 343 339 328 312 305 305 305 303 302 302 301 296 289 279 264 249 239 235 233 233 235 237 241 243
14 14 13 13 12 10 5 359 354 353 353 353 352 352 352 349 344 338 333 329 327 327 328 330 332 335 339 343 346 348 350 351 351 351 351 351 352 352 350 348 347 347 347 347 346 346 345 343 344 346 349 351 350 350 351 349 346 348 352 353 350 347 345 341 331 318 309 305 302 300 295 288 282 277 271 260 241 226 222 224 228 232 237 241 245
14 14 13 13 13 12 9 5 359 354 351 351 351 350 350 350 349 345 340 333 327 323 322 321 321 322 323 325 328 330 332 335 336 337 336 336 336 337 339 341 340 339 338 338 338 339 339 338 335 335 337 340 343 343 343 341 343 349 354 354 353 354 352 346 340 331 321 312 306 302 295 286 276 267 260 254 245 229 217 215 220 227 233 237 241
Height
5524 5523 5521 5520 5518 5516 5512 5509 5506 5503 5501 5498 5496 5495 5494 5492 5491 5490 5489 5488 5488 5487 5487 5486 5486 5487 5488 5488 5489 5490 5490 5491 5493 5493 5494 5495 5496 5498 5500 5501 5503 5505 5507 5509 5511 5514 5517 5520 5523 5527 5530 5534 5538 5541 5545 5548 5551 5554 5557 5560 5563 5566 5569 5572 5575 5578 5581 5585 5588 5591 5596 5601 5605 5607 5610 5614 5618 5622 5626 5628 5631 5635 5639 5643 5646
5516 5514 5513 5511 5509 5506 5503 5499 5496 5494 5491 5488 5486 5484 5482 5481 5479 5478 5477 5477 5475 5474 5473 5473 5473 5473 5474 5474 5475 5476 5477 5478 5480 5481 5482 5483 5485 5487 5489 5490 5491 5493 5495 5497 5499 5501 5504 5507 5510 5513 5517 5521 5525 5530 5533 5536 5539 5542 5545 5549 5552 5556 5559 5563 5565 5568 5572 5575 5578 5581 5586 5591 5595 5598 5602 5607 5611 5614 5617 5620 5623 5626 5631 5635 5638
5508 5505 5503 5501 5499 5496 5492 5489 5486 5484 5481 5478 5476 5474 5472 5470 5468 5467 5466 5465 5463 5461 5459 5458 5458 5459 5460 5460 5460 5461 5462 5464 5466 5467 5468 5470 5473 5475 5477 5478 5479 5482 5484 5485 5487 5489 5492 5495 5498 5501 5504 5508 5512 5517 5521 5524 5527 5530 5533 5537 5541 5544 5549 5553 5555 5557 5561 5564 5567 5571 5577 5581 5583 5588 5593 5599 5602 5604 5606 5610 5614 5618 5622 5626 5628
5501 5497 5494 5492 5489 5485 5481 5478 5475 5473 5471 5468 5466 5464 5462 5460 5458 5456 5454 5452 5451 5449 5447 5444 5443 5443 5444 5445 5445 5446 5448 5448 5450 5453 5454 5456 5459 5462 5463 5465 5467 5469 5471 5473 5475 5478 5480 5483 5486 5489 5492 5495 5499 5504 5508 5511 5515 5518 5521 5525 5528 5532 5537 5541 5544 5546 5550 5554 5557 5561 5567 5569 5571 5579 5585 5588 5590 5592 5596 5602 5605 5609 5613 5616 5619
5493 5490 5486 5482 5479 5475 5471 5467 5464 5462 5460 5457 5455 5453 5451 5448 5446 5444 5442 5440 5438 5437 5434 5432 5429 5427 5427 5427 5429 5431 5433 5434 5436 5438 5441 5442 5445 5448 5449 5450 5452 5455 5457 5460 5462 5465 5467 5470 5473 5476 5479 5483 5487 5491 5495 5498 5502 5505 5508 5512 5516 5520 5524 5529 5532 5535 5539 5543 5546 5551 5556 5557 5562 5570 5573 5576 5579 5582 5588 5592 5595 5599 5603 5606 5610
5486 5482 5477 5473 5469 5465 5462 5458 5455 5452 5449 5446 5444 5442 5439 5436 5434 5432 5430 5428 5427 5425 5422 5420 5417 5414 5412 5412 5412 5413 5417 5420 5421 5425 5428 5429 5431 5434 5435 5435 5437 5439 5443 5445 5448 5451 5454 5457 5460 5463 5467 5471 5474 5478 5482 5485 5489 5492 5495 5499 5504 5507 5511 5516 5520 5524 5527 5531 5534 5539 5544 5546 5552 5558 5560 5564 5570 5573 5577 5581 5585 5589 5592 5596 5601
5479 5474 5469 5465 5461 5457 5453 5450 5446 5442 5439 5435 5433 5430 5426 5423 5421 5419 5417 5416 5414 5413 5410 5407 5403 5400 5399 5398 5397 5398 5400 5403 5406 5409 5413 5415 5417 5420 5421 5421 5421 5424 5427 5430 5432 5436 5439 5442 5446 5450 5455 5458 5461 5465 5469 5472 5476 5479 5482 5485 5490 5494 5498 5503 5508 5512 5513 5518 5524 5528 5531 5535 5541 5545 5548 5554 5559 5563 5568 5572 5576 5580 5582 5586 5592
5470 5466 5462 5457 5453 5448 5444 5440 5436 5432 5427 5423 5419 5416 5412 5408 5406 5404 5402 5402 5401 5400 5398 5395 5392 5388 5387 5385 5385 5385 5385 5388 5390 5392 5395 5398 5401 5405 5405 5406 5406 5407 5411 5414 5417 5420 5423 5428 5432 5437 5441 5445 5448 5452 5455 5458 5462 5465 5468 5471 5476 5480 5484 5489 5495 5498 5500 5505 5511 5514 5519 5523 5528 5532 5537 5542 5546 5552 5559 5563 5567 5570 5572 5577 5582
5462 5457 5453 5449 5444 5439 5434 5429 5425 5421 5415 5411 5406 5402 5398 5394 5391 5388 5387 5387 5386 5386 5384 5383 5380 5376 5375 5373 5373 5373 5373 5373 5374 5375 5377 5379 5384 5388 5389 5390 5391 5391 5394 5398 5401 5405 5409 5413 5418 5422 5426 5430 5434 5438 5441 5444 5448 5451 5454 5458 5462 5467 5470 5475 5481 5485 5487 5492 5497 5501 5505 5511 5515 5520 5525 5529 5534 5541 5548 5553 5557 5560 5562 5568 5574
5455 5450 5445 5440 5435 5430 5425 5419 5414 5409 5403 5398 5393 5389 5384 5381 5377 5375 5373 5372 5371 5370 5369 5368 5365 5362 5361 5359 5359 5359 5359 5359 5360 5361 5362 5363 5366 5370 5373 5374 5375 5375 5377 5381 5385 5388 5392 5397 5402 5406 5410 5415 5419 5423 5426 5429 5433 5437 5441 5444 5448 5453 5457 5460 5465 5470 5474 5479 5484 5487 5492 5497 5502 5506 5512 5517 5522 5528 5535 5542 5546 5549 5553 5560 5564
5447 5442 5437 5431 5426 5420 5414 5408 5402 5396 5390 5385 5380 5375 5370 5367 5363 5361 5359 5358 5356 5354 5352 5351 5349 5346 5345 5343 5342 5342 5342 5343 5344 5346 5348 5349 5351 5354 5356 5359 5359 5358 5360 5365 5368 5371 5375 5380 5385 5389 5394 5399 5404 5407 5410 5414 5418 5422 5427 5430 5434 5439 5442 5446 5450 5456 5460 5465 5470 5474 5478 5484 5488 5493 5498 5503 5508 5514 5521 5529 5534 5538 5543 5549 5553
5438 5433 5427 5422 5416 5410 5403 5396 5390 5384 5378 5372 5367 5362 5357 5353 5350 5346 5345 5343 5341 5338 5336 5334 5332 5330 5328 5327 5326 5326 5325 5326 5327 5330 5333 5335 5337 5339 5341 5344 5345 5344 5345 5350 5352 5354 5358 5364 5368 5372 5377 5381 5385 5389 5393 5397 5402 5407 5411 5416 5420 5423 5427 5431 5435 5440 5445 5451 5456 5460 5464 5469 5474 5479 5485 5489 5492 5500 5507 5514 5521 5526 5531 5537 5542
5430 5425 5419 5414 5407 5401 5395 5387 5380 5373 5367 5361 5356 5350 5346 5342 5338 5334 5331 5329 5325 5322 5320 5318 5316 5313 5311 5310 5309 5309 5309 5309 5311 5313 5317 5319 5322 5325 5326 5329 5331 5331 5332 5336 5338 5340 5344 5349 5353 5356 5360 5363 5366 5370 5374 5379 5385 5390 5395 5400 5404 5408 5411 5414 5419 5425 5430 5435 5442 5446 5449 5454 5460 5465 5471 5474 5477 5484 5491 5498 5507 5513 5518 5526 5531
5425 5419 5413 5407 5400 5394 5387 5380 5372 5365 5358 5352 5347 5342 5337 5332 5328 5324 5320 5317 5313 5310 5307 5305 5302 5300 5298 5296 5294 5293 5293 5294 5295 5297 5300 5303 5306 5309 5312 5314 5317 5318 5319 5322 5326 5329 5332 5335 5339 5342 5345 5348 5351 5353 5357 5362 5367 5372 5377 5382 5387 5391 5394 5397 5403 5409 5413 5418 5425 5430 5433 5438 5445 5451 5456 5459 5463 5469 5475 5483 5493 5499 5504 5512 5518
5420 5413 5407 5399 5392 5386 5379 5373 5366 5359 5352 5345 5340 5334 5329 5325 5321 5316 5312 5309 5305 5301 5298 5295 5293 5290 5287 5285 5283 5281 5281 5281 5282 5283 5286 5289 5292 5295 5298 5300 5304 5306 5306 5310 5315 5318 5321 5324 5327 5330 5333 5336 5339 5341 5344 5348 5352 5357 5362 5366 5370 5373 5375 5379 5385 5389 5394 5399 5405 5412 5416 5421 5429 5436 5440 5445 5450 5456 5461 5468 5476 5482 5488 5496 5503
5413 5407 5400 5393 5386 5379 5372 5366 5360 5354 5348 5342 5335 5329 5324 5319 5315 5310 5306 5302 5298 5295 5291 5288 5285 5282 5279 5277 5274 5272 5271 5271 5272 5273 5274 5277 5280 5283 5286 5288 5292 5294 5296 5300 5304 5307 5311 5314 5317 5320 5323 5326 5329 5332 5335 5338 5341 5345 5349 5353 5356 5357 5359 5363 5367 5370 5375 5380 5385 5391 5396 5403 5411 5419 5424 5429 5435 5441 5447 5453 5458 5464 5471 5480 5489
5409 5402 5395 5387 5380 5373 5366 5360 5355 5349 5344 5339 5333 5327 5321 5316 5311 5307 5302 5298 5294 5290 5287 5283 5280 5277 5274 5271 5268 5266 5265 5264 5264 5265 5266 5267 5270 5272 5275 5278 5281 5285 5287 5291 5295 5299 5302 5306 5309 5312 5315 5319 5322 5324 5327 5330 5333 5337 5340 5343 5345 5346 5347 5351 5353 5356 5360 5364 5367 5372 5377 5384 5393 5399 5404 5410 5418 5425 5431 5437 5442 5448 5455 5463 5473
5406 5399 5391 5384 5377 5370 5363 5356 5350 5344 5339 5334 5330 5325 5320 5314 5309 5304 5300 5296 5292 5287 5283 5280 5276 5273 5270 5267 5265 5262 5260 5259 5258 5258 5259 5260 5262 5264 5267 5270 5273 5276 5280 5284 5288 5291 5295 5298 5302 5306 5309 5313 5316 5318 5321 5324 5326 5330 5333 5335 5336 5337 5339 5341 5342 5344 5348 5350 5353 5358 5362 5368 5375 5380 5384 5390 5398 5405 5412 5419 5426 5432 5438 5445 5455
5401 5395 5388 5381 5374 5367 5360 5354 5347 5340 5334 5330 5325 5321 5317 5312 5307 5303 5298 5294 5290 5286 5282 5278 5274 5271 5268 5265 5262 5260 5257 5255 5254 5254 5254 5255 5256 5258 5260 5263 5266 5270 5273 5278 5282 5286 5290 5293 5297 5301 5304 5307 5310 5313 5315 5318 5321 5324 5326 5328 5329 5330 5332 5334 5334 5335 5337 5339 5342 5346 5349 5354 5361 5364 5368 5373 5379 5385 5393 5401 5408 5415 5422 5428 5439
5393 5388 5382 5377 5370 5363 5357 5351 5345 5338 5332 5327 5322 5317 5313 5309 5305 5301 5297 5292 5288 5284 5280 5276 5273 5269 5266 5263 5260 5257 5255 5253 5251 5250 5250 5251 5252 5253 5256 5258 5262 5265 5269 5273 5278 5282 5286 5290 5293 5297 5299 5302 5305 5308 5310 5312 5315 5318 5320 5321 5323 5324 5326 5327 5328 5328 5330 5331 5334 5337 5339 5343 5348 5350 5354 5359 5364 5369 5376 5384 5390 5397 5404 5412 5422
5387 5382 5376 5371 5365 5359 5353 5347 5342 5337 5331 5325 5320 5315 5310 5306 5303 5299 5295 5291 5287 5283 5279 5275 5271 5268 5265 5262 5259 5256 5254 5251 5250 5248 5248 5248 5249 5251 5253 5256 5259 5263 5267 5271 5275 5279 5283 5286 5289 5292 5295 5297 5300 5302 5305 5307 5310 5312 5314 5316 5317 5319 5321 5322 5323 5323 5324 5325 5327 5329 5332 5334 5336 5339 5343 5348 5352 5357 5362 5369 5375 5381 5388 5396 5406
5383 5377 5372 5367 5361 5355 5349 5344 5339 5334 5329 5324 5318 5313 5309 5304 5301 5297 5293 5289 5286 5282 5278 5274 5271 5267 5264 5261 5258 5256 5253 5251 5249 5248 5248 5248 5248 5250 5252 5255 5258 5261 5265 5268 5272 5276 5279 5282 5285 5288 5291 5293 5295 5297 5300 5302 5305 5307 5309 5311 5312 5314 5315 5317 5318 5319 5320 5321 5322 5324 5326 5327 5328 5330 5334 5338 5341 5345 5349 5355 5362 5369 5375 5382 5391
5380 5374 5369 5364 5358 5352 5346 5341 5336 5332 5327 5322 5317 5313 5308 5304 5300 5296 5292 5288 5285 5281 5277 5274 5270 5266 5263 5260 5257 5255 5253 5251 5250 5249 5248 5248 5249 5250 5252 5254 5257 5259 5263 5266 5269 5273 5276 5278 5281 5284 5286 5288 5290 5293 5295 5298 5300 5302 5304 5306 5307 5308 5310 5311 5313 5314 5315 5316 5317 5319 5321 5322 5322 5323 5327 5330 5332 5335 5338 5343 5350 5357 5364 5370 5377
5381 5375 5368 5362 5356 5350 5345 5340 5335 5330 5326 5321 5317 5312 5308 5304 5300 5295 5291 5288 5284 5280 5276 5273 5269 5266 5262 5259 5256 5254 5252 5250 5249 5248 5248 5248 5249 5250 5251 5253 5256 5258 5261 5263 5266 5269 5272 5274 5277 5280 5282 5284 5286 5288 5291 5293 5295 5297 5299 5300 5302 5303 5304 5306 5308 5309 5310 5311 5312 5314 5316 5317 5317 5319 5322 5324 5325 5327 5330 5334 5340 5345 5351 5358 5365
5382 5375 5368 5362 5356 5350 5345 5340 5334 5330 5325 5321 5317 5312 5308 5304 5300 5295 5291 5287 5283 5279 5275 5272 5269 5265 5262 5259 5256 5253 5250 5248 5247 5247 5246 5247 5247 5248 5250 5252 5254 5256 5259 5261 5263 5265 5268 5271 5273 5275 5278 5280 5282 5284 5287 5289 5290 5292 5294 5295 5297 5298 5299 5301 5302 5304 5305 5306 5307 5309 5311 5312 5313 5314 5317 5319 5319 5321 5324 5327 5332 5336 5340 5347 5353
5382 5375 5368 5362 5356 5350 5345 5339 5334 5329 5325 5320 5316 5312 5307 5303 5299 5295 5290 5286 5282 5279 5275 5271 5268 5265 5261 5258 5255 5252 5249 5247 5245 5244 5244 5244 5245 5246 5248 5249 5252 5254 5256 5258 5261 5263 5265 5267 5269 5271 5273 5275 5278 5280 5283 5285 5286 5288 5289 5291 5292 5293 5294 5295 5297 5298 5300 5301 5302 5304 5305 5307 5308 5310 5312 5314 5315 5316 5318 5321 5324 5328 5331 5336 5341
5380 5374 5369 5363 5356 5350 5344 5339 5333 5329 5324 5320 5315 5311 5307 5302 5298 5294 5290 5286 5283 5279 5275 5271 5268 5265 5261 5258 5255 5251 5248 5246 5244 5242 5241 5241 5242 5243 5245 5247 5249 5251 5254 5256 5258 5260 5262 5265 5266 5268 5270 5272 5275 5278 5280 5281 5283 5284 5285 5287 5288 5289 5290 5291 5292 5294 5295 5296 5297 5299 5300 5302 5303 5305 5307 5309 5310 5312 5313 5316 5318 5320 5323 5327 5331
5380 5375 5369 5363 5356 5350 5344 5339 5333 5328 5323 5319 5314 5310 5307 5302 5299 5295 5291 5287 5283 5279 5276 5272 5269 5265 5262 5258 5255 5251 5248 5245 5243 5241 5239 5239 5239 5240 5242 5244 5246 5248 5251 5253 5255 5257 5260 5262 5263 5265 5267 5270 5273 5275 5276 5278 5279 5281 5282 5283 5284 5285 5286 5287 5289 5290 5291 5292 5293 5294 5295 5297 5298 5300 5302 5304 5305 5307 5309 5311 5313 5315 5316 5319 5323
5381 5376 5369 5363 5356 5350 5344 5338 5333 5328 5323 5319 5315 5311 5307 5303 5299 5295 5291 5288 5284 5280 5277 5273 5270 5267 5263 5260 5256 5253 5249 5246 5243 5241 5239 5238 5238 5239 5240 5242 5244 5246 5248 5251 5253 5255 5257 5259 5261 5263 5265 5268 5270 5271 5273 5274 5276 5277 5279 5280 5281 5282 5283 5284 5285 5286 5286 5288 5289 5290 5291 5293 5294 5296 5298 5299 5301 5302 5304 5306 5308 5310 5311 5314 5317
5382 5377 5370 5364 5357 5350 5344 5338 5333 5328 5324 5319 5315 5311 5307 5304 5300 5296 5292 5288 5285 5281 5278 5275 5271 5268 5265 5261 5258 5255 5252 5249 5246 5243 5241 5240 5239 5239 5240 5242 5244 5246 5247 5249 5251 5253 5255 5256 5258 5260 5263 5265 5267 5268 5270 5272 5273 5274 5275 5277 5277 5279 5280 5280 5281 5282 5283 5284 5285 5286 5287 5289 5290 5292 5293 5295 5296 5297 5300 5302 5304 5305 5307 5309 5312
5382 5376 5371 5364 5358 5351 5345 5339 5333 5328 5324 5319 5315 5311 5308 5304 5300 5296 5293 5289 5286 5283 5279 5276 5273 5269 5266 5263 5261 5258 5255 5252 5250 5247 5245 5243 5242 5242 5242 5243 5244 5245 5247 5249 5250 5252 5253 5255 5256 5258 5260 5262 5264 5266 5268 5269 5270 5271 5272 5273 5274 5275 5276 5277 5277 5278 5279 5280 5281 5282 5284 5285 5286 5288 5289 5290 5292 5293 5296 5298 5299 5301 5303 5305 5308
5382 5376 5371 5365 5358 5352 5346 5340 5334 5329 5324 5319 5315 5311 5307 5304 5300 5296 5293 5290 5287 5284 5280 5277 5274 5271 5268 5266 5263 5261 5259 5256 5254 5251 5249 5247 5246 5245 5245 5245 5246 5247 5248 5249 5250 5251 5253 5254 5255 5257 5259 5261 5262 5264 5265 5266 5267 5268 5269 5269 5270 5271 5272 5273 5273 5274 5275 5276 5277 5278 5280 5281 5282 5284 5285 5287 5288 5290 5292 5294 5295 5297 5299 5301 5304
5381 5376 5370 5365 5358 5352 5346 5340 5334 5329 5324 5319 5315 5311 5308 5304 5300 5297 5294 5291 5288 5285 5282 5279 5276 5273 5271 5268 5266 5264 5262 5259 5257 5255 5253 5251 5250 5249 5249 5249 5249 5249 5250 5250 5251 5252 5253 5254 5255 5257 5258 5259 5261 5262 5263 5263 5264 5264 5265 5266 5266 5267 5268 5269 5270 5271 5271 5272 5273 5274 5276 5277 5279 5280 5282 5283 5285 5286 5288 5289 5291 5293 5295 5297 5300
5381 5376 5371 5365 5359 5353 5347 5341 5336 5330 5325 5320 5316 5312 5308 5305 5301 5298 5295 5292 5289 5286 5284 5281 5278 5276 5273 5271 5269 5266 5264 5262 5260 5258 5256 5255 5254 5253 5252 5252 5251 5252 5252 5252 5252 5253 5254 5255 5255 5256 5257 5258 5259 5259 5260 5260 5261 5261 5262 5262 5263 5264 5265 5265 5266 5267 5268 5269 5270 5271 5272 5273 5274 5276 5278 5279 5281 5282 5284 5285 5287 5289 5291 5293 5296
5381 5376 5371 5366 5360 5355 5349 5343 5338 5332 5327 5322 5318 5314 5310 5307 5304 5300 5297 5295 5292 5289 5286 5284 5281 5279 5276 5274 5272 5269 5267 5265 5263 5261 5259 5258 5257 5256 5255 5254 5254 5254 5254 5254 5254 5254 5254 5255 5255 5255 5256 5256 5256 5257 5257 5257 5258 5258 5258 5259 5259 5260 5260 5261 5262 5263 5264 5265 5266 5267 5268 5269 5270 5272 5273 5275 5276 5278 5279 5281 5283 5285 5287 5289 5292
5381 5376 5372 5367 5362 5356 5351 5346 5340 5335 5329 5325 5321 5317 5313 5310 5307 5304 5301 5298 5295 5293 5290 5287 5285 5282 5280 5277 5275 5272 5270 5268 5266 5264 5262 5261 5259 5258 5257 5256 5256 5255 5255 5255 5254 5254 5254 5254 5254 5254 5254 5254 5254 5254 5254 5254 5255 5255 5255 5255 5256 5256 5256 5257 5258 5259 5260 5261 5262 5263 5264 5265 5266 5268 5269 5271 5272 5274 5275 5277 5279 5281 5283 5285 5288
5381 5376 5371 5366 5362 5357 5352 5348 5343 5338 5333 5328 5324 5320 5316 5313 5310 5307 5304 5302 5299 5296 5293 5291 5288 5286 5283 5281 5278 5276 5273 5271 5269 5267 5265 5264 5262 5261 5259 5258 5257 5256 5255 5255 5254 5254 5254 5253 5253 5252 5252 5252 5252 5252 5252 5252 5252 5252 5252 5252 5252 5253 5253 5254 5255 5255 5256 5257 5258 5259 5260 5261 5262 5264 5265 5267 5268 5269 5271 5273 5275 5277 5279 5282 5284
5382 5377 5372 5367 5363 5358 5354 5350 5345 5340 5336 5331 5327 5324 5320 5316 5314 5311 5308 5305 5302 5299 5297 5294 5291 5289 5286 5284 5281 5279 5276 5274 5272 5270 5268 5266 5265 5263 5261 5260 5258 5257 5256 5255 5255 5254 5253 5252 5252 5251 5251 5250 5250 5250 5249 5249 5249 5249 5249 5249 5249 5250 5250 5251 5251 5252 5253 5254 5254 5255 5256 5257 5258 5260 5262 5263 5264 5265 5267 5269 5271 5273 5276 5278 5280
5382 5378 5373 5368 5364 5360 5355 5351 5347 5343 5339 5334 5331 5327 5323 5320 5317 5314 5311 5308 5305 5302 5299 5297 5294 5292 5289 5287 5284 5281 5279 5277 5274 5273 5271 5269 5267 5265 5263 5261 5260 5259 5258 5256 5255 5254 5253 5252 5252 5251 5250 5249 5249 5248 5248 5247 5247 5247 5247 5247 5247 5247 5247 5248 5248 5248 5249 5249 5250 5251 5252 5253 5254 5255 5257 5258 5260 5261 5263 5266 5268 5269 5272 5275 5277
5383 5378 5374 5369 5365 5361 5357 5353 5349 5345 5341 5337 5333 5330 5326 5323 5319 5316 5313 5310 5307 5305 5302 5300 5297 5294 5292 5289 5287 5284 5281 5279 5277 5275 5273 5271 5269 5267 5265 5263 5261 5260 5258 5257 5256 5255 5254 5253 5252 5251 5250 5250 5249 5248 5247 5247 5246 5246 5245 5245 5245 5245 5245 5245 5245 5245 5245 5246 5246 5247 5248 5249 5250 5251 5252 5254 5255 5257 5260 5262 5263 5266 5269 5271 5273
5384 5379 5374 5370 5366 5362 5358 5354 5351 5347 5343 5340 5336 5332 5328 5325 5321 5318 5315 5312 5310 5307 5304 5302 5299 5297 5294 5291 5289 5286 5284 5282 5280 5277 5275 5273 5271 5269 5267 5264 5262 5261 5259 5258 5257 5255 5254 5253 5253 5252 5251 5250 5250 5249 5248 5247 5247 5246 5245 5245 5244 5243 5243 5243 5243 5243 5243 5243 5243 5243 5244 5245 5246 5247 5248 5249 5251 5253 5255 5257 5259 5262 5264 5266 5267
5384 5380 5375 5371 5367 5363 5359 5355 5351 5348 5344 5341 5338 5334 5330 5327 5323 5320 5317 5314 5311 5308 5306 5303 5301 5298 5296 5293 5291 5288 5286 5284 5281 5279 5277 5274 5272 5270 5268 5266 5264 5262 5261 5259 5258 5256 5255 5254 5253 5252 5251 5250 5249 5249 5248 5247 5247 5246 5245 5244 5244 5243 5242 5242 5242 5241 5241 5241 5241 5241 5241 5241 5242 5243 5244 5245 5247 5248 5250 5253 5255 5258 5259 5261 5263
5385 5380 5376 5372 5368 5364 5360 5356 5353 5349 5345 5342 5339 5335 5332 5328 5325 5322 5318 5315 5312 5310 5307 5305 5302 5300 5297 5295 5292 5290 5288 5285 5283 5281 5278 5276 5274 5272 5270 5268 5266 5264 5262 5261 5259 5258 5256 5255 5253 5252 5250 5249 5249 5248 5247 5247 5246 5245 5245 5244 5243 5242 5242 5241 5241 5240 5240 5240 5239 5239 5239 5239 5239 5240 5241 5242 5243 5244 5246 5249 5251 5253 5255 5256 5258
5386 5381 5377 5373 5369 5365 5361 5357 5353 5350 5346 5343 5339 5336 5333 5329 5326 5323 5320 5317 5314 5311 5308 5306 5303 5300 5298 5296 5293 5291 5289 5286 5284 5282 5279 5277 5275 5273 5271 5269 5268 5266 5264 5263 5261 5259 5257 5256 5254 5252 5251 5249 5248 5247 5247 5246 5245 5244 5244 5243 5242 5241 5241 5240 5239 5239 5238 5238 5237 5237 5237 5237 5237 5237 5238 5239 5240 5241 5243 5245 5247 5249 5251 5252 5254
5387 5381 5376 5372 5369 5365 5361 5358 5354 5350 5347 5344 5340 5337 5333 5330 5327 5324 5321 5318 5315 5312 5309 5307 5304 5301 5299 5296 5294 5291 5289 5287 5285 5283 5280 5278 5276 5274 5272 5270 5269 5267 5265 5264 5262 5260 5258 5257 5255 5253 5252 5250 5249 5248 5246 5245 5244 5243 5242 5242 5241 5240 5239 5239 5238 5237 5237 5236 5235 5234 5234 5234 5234 5234 5235 5235 5236 5238 5239 5241 5243 5245 5246 5248 5250
5389 5382 5377 5372 5368 5364 5360 5357 5353 5350 5346 5343 5340 5337 5334 5331 5328 5325 5322 5319 5316 5313 5311 5308 5305 5302 5300 5297 5294 5292 5290 5287 5286 5284 5282 5279 5277 5275 5273 5271 5269 5267 5266 5264 5262 5261 5259 5257 5256 5254 5252 5251 5249 5248 5247 5245 5244 5243 5242 5240 5239 5238 5238 5237 5236 5236 5235 5234 5233 5232 5231 5230 5230 5231 5231 5232 5233 5234 5236 5237 5239 5241 5242 5244 5246
5391 5384 5378 5372 5368 5364 5360 5357 5353 5350 5346 5343 5340 5337 5334 5331 5328 5326 5323 5320 5317 5314 5312 5309 5306 5304 5301 5298 5296 5293 5291 5288 5286 5284 5282 5280 5278 5276 5274 5272 5270 5268 5266 5264 5263 5261 5259 5258 5256 5254 5253 5251 5250 5248 5247 5245 5244 5242 5241 5240 5238 5237 5236 5235 5235 5234 5234 5233 5232 5231 5229 5228 5228 5228 5228 5228 5229 5231 5232 5234 5235 5237 5238 5240 5242
5393 5386 5379 5374 5369 5364 5361 5357 5354 5350 5347 5343 5340 5336 5333 5330 5328 5325 5322 5320 5317 5314 5312 5309 5307 5304 5302 5299 5297 5294 5292 5289 5287 5285 5282 5280 5278 5276 5275 5273 5271 5269 5268 5266 5264 5262 5260 5258 5256 5254 5253 5251 5249 5248 5246 5245 5243 5242 5240 5239 5237 5236 5235 5234 5233 5233 5232 5231 5230 5229 5228 5227 5226 5226 5225 5225 5226 5227 5229 5230 5232 5234 5235 5237 5238
5395 5388 5382 5375 5370 5365 5361 5357 5354 5350 5347 5343 5339 5336 5332 5329 5326 5324 5321 5319 5316 5314 5311 5309 5306 5304 5302 5299 5297 5295 5292 5290 5287 5285 5283 5281 5279 5277 5275 5273 5271 5269 5267 5266 5264 5262 5260 5258 5256 5254 5252 5251 5249 5247 5245 5244 5242 5241 5239 5238 5236 5235 5233 5232 5231 5231 5230 5229 5228 5227 5227 5226 5225 5224 5224 5224 5224 5225 5226 5228 5229 5231 5233 5234 5235
5397 5390 5383 5376 5371 5366 5361 5357 5354 5350 5346 5342 5339 5335 5332 5329 5325 5323 5320 5317 5315 5312 5310 5308 5306 5303 5301 5299 5296 5294 5292 5289 5287 5285 5283 5281 5279 5277 5275 5273 5271 5268 5266 5264 5263 5261 5259 5258 5256 5254 5252 5250 5248 5246 5245 5243 5241 5240 5238 5237 5235 5234 5233 5231 5230 5229 5228 5227 5226 5225 5225 5224 5223 5223 5223 5223 5223 5223 5224 5226 5227 5229 5230 5231 5232
5400 5392 5385 5378 5372 5367 5362 5358 5354 5349 5346 5342 5338 5335 5331 5328 5325 5322 5319 5316 5313 5311 5309 5306 5304 5302 5300 5297 5295 5293 5291 5289 5287 5284 5281 5279 5277 5275 5273 5272 5270 5268 5265 5263 5261 5259 5258 5256 5255 5253 5251 5250 5248 5246 5245 5243 5241 5240 5238 5237 5235 5234 5232 5231 5229 5228 5227 5226 5224 5223 5223 5222 5222 5222 5222 5222 5222 5222 5223 5224 5225 5226 5227 5228 5229